SCP
-0 -0 -0 -0 -0 0 -0 -0 0 0 -0 -0 -0 -0 0 0 0 0 0 0 0 0 0 0 0 0 0 0 0 0 0 0 0 0 0 0 0 0 0 0 0 0 0 0 -0
-0 -0 -0 0 0 -0 -0 0 0 0 0 0 0 0 0 0 0 0 0 0 0 0 0 0 0 0 0 0 0 0 0 0 0 0 0 0 0 0 0 0 0 0 0 0 -0
-0 -0 0 0 0 -0 0 0 0 0 0 0 0 0 0 0 0 0 0 0 0 0 0 0 0 0 0 0 0 0 0 0 0 0 0 0 0 0 0 0 0 0 0 0 -0
-0 -0 -0 0 0 -0 0 0 0 0 0 0 0 0 -0 0 0 0 0 0 0 0 0 0 0 0 0 0 0 0 0 0 0 0 0 0 0 0 0 0 0 0 0 0 0
-0 -0 0 0 0 0 0 0 0 0 0 0 0 0 0 0 0 -0 -0 0 0 0 0 0 0 0 0 0 0 0 0 0 0 0 0 0 0 0 0 0 0 0 0 0 0
-0 -0 0 0 -0 0 0 0 0 0 0 0 -0 -0 0 0 -0 -0 0 0 0 0 0 0 0 0 0 0 0 0 0 0 0 0 -0 0 0 0 0 -0 0 0 0 0 0
-0 0 0 -0 -0 -0 0 0 0 0 0 -0 -0 0 0 0 -0 0 0 0 0 0 0 0 0 0 0 0 0 0 0 0 -0 0 0 -0 0 0 0 0 0 0 0 0 0
-0 0 0 -0 -0 -0 -0 -0 0 0 0 -0 -0 -0 -0 -0 -0 -0 0 -0 -0 -0 0 0 0 0 0 0 0 0 0 0 0 0 0 0 0 0 0 0 0 0 0 -0 -0
0 -0 -0 -0 -0 -0 -0 -0 0 0 0 -0 -0 -0 -0 -0 -0 -0 0 -0 -0 -0 -0 0 0 0 0 0 0 0 0 0 -0 0 0 0 -0 0 0 0 0 0 0 0 0
-0 0 -0 -0 -0 0 0 0 0 0 0 0 0 0 0 0 -0 0 0 0 0 -0 0 0 0 0 0 0 0 0 0 0 0 0 0 0 0 0 0 0 0 0 0 0 0
0 0 0 -0 -0 0 0 0 0 0 0 0 0 0 0 0 0 0 0 0 0 0 0 0 0 0 0 0 0 0 0 0 0 0 0 0 0 0 0 0 0 0 0 0 0
0 0 0 0 -0 0 0 0 0 0 0 0 0 0 0 0 0 0 0 0 0 0 0 0 0 0 0 0 0 0 0 0 -0 0 0 0 -0 -0 0 0 0 0 0 0 0
0 0 0 -0 0 0 0 0 0 0 0 0 0 0 0 0 0 0 0 0 0 0 0 0 0 0 0 0 0 0 0 0 -0 0 0 0 -0 0 0 0 0 0 0 0 0
0 0 -0 -0 0 0 0 0 0 0 0 0 0 0 0 0 0 0 0 0 0 0 0 0 0 0 0 0 0 -0 0 0 0 0 0 0 -0 0 0 0 0 0 0 0 0
0 0 -0 0 0 0 0 0 0 0 0 0 0 0 0 0 0 0 0 0 0 0 0 0 0 0 0 0 0 0 0 0 0 0 0 0 0 0 0 0 0 0 0 0 0
0 0 0 0 0 0 0 0 0 0 0 0 0 0 0 0 0 0 0 0 0 0 0 0 0 0 0 0 0 0 0 0 0 0 0 0 0 -0 0 0 0 0 0 0 0
0 0 0 0 0 0 0 0 0 0 0 0 0 0 0 0 0 0 0 0 0 0 0 0 0 0 0 0 0 0 0 0 0 0 0 0 0 0 0 0 0 0 0 0 0
0 0 0 0 0 0 0 0 0 0 0 0 0 0 0 0 0 0 0 0 0 0 0 0 0 0 0 0 0 0 0 0 0 0 0 0 0 0 0 0 0 0 0 0 0
0 0 0 0 0 0 0 0 0 0 0 0 0 0 0 0 0 0 0 0 0 0 0 0 -0 0 0 0 0 0 0 0 0 0 0 0 0 0 -0 -0 0 0 0 0 0
0 0 0 0 0 0 0 0 0 0 0 0 0 0 0 0 0 0 0 0 0 0 0 0 0 0 0 0 0 0 0 0 0 0 0 0 0 0 -0 0 0 0 0 0 0
0 0 0 0 0 0 0 0 0 0 0 0 0 0 0 0 0 0 0 0 0 0 0 0 0 0 0 0 0 0 0 0 0 0 0 0 0 0 0 0 0 0 0 0 0
0 0 0 0 0 0 0 0 0 0 0 0 0 0 0 0 0 0 0 0 0 0 0 0 0 0 0 0 0 0 0 0 0 0 0 0 0 0 0 0 0 0 0 0 0
0 0 0 0 0 0 0 0 0 0 0 0 0 0 0 0 0 0 0 0 0 0 0 0 0 0 0 0 0 0 0 0 0 0 0 0 0 0 0 0 0 0 -0 -0 -0
0 0 0 0 0 0 0 0 0 0 0 0 0 0 0 0 0 0 0 0 0 0 0 0 0 0 0 0 0 0 0 0 0 0 0 0 0 0 0 0 0 -0 -0 -0 -0
0 0 0 0 0 0 0 0 0 0 0 0 0 0 0 0 0 0 0 0 0 0 0 0 0 0 0 0 0 0 0 0 -0 0 0 0 0 0 0 0 0 -0 -0 -0 0
0 0 0 0 0 0 0 0 0 0 0 0 0 0 0 0 0 0 0 0 0 0 0 0 0 0 0 0 0 0 -0 0 0 0 0 0 0 0 0 0 0 0 0 0 0
0 0 0 0 0 0 0 0 0 0 0 0 0 0 0 0 0 0 0 0 0 0 0 0 0 0 0 0 0 0 0 0 0 0 0 0 0 0 -0 -0 -0 -0 0 0 0
Wind_Speed_500mb
50 47 46 41 36 32 28 24 20 18 17 15 17 19 22 24 20 13 7 12 12 10 10 12 17 10 6 6 8 8 9 2 3 4 6 30 13 14 23 36 22 24 30 36 37
55 54 50 43 35 29 24 21 20 21 21 22 22 23 25 25 16 20 19 16 17 19 18 17 18 11 6 6 5 9 7 14 10 4 3 21 11 32 6 21 18 23 26 26 29
58 55 48 40 33 28 23 22 22 23 25 26 26 27 24 17 17 18 20 15 16 18 19 16 16 11 8 9 11 2 8 6 3 12 17 10 19 16 7 2 21 20 24 24 25
60 56 48 38 32 26 23 22 22 26 29 27 30 26 19 11 8 13 14 13 13 11 13 14 10 8 8 6 12 2 2 5 18 21 20 9 18 21 20 15 29 28 25 25 29
64 59 47 36 30 25 22 21 22 28 27 27 27 23 13 11 9 12 13 13 15 9 11 15 21 7 4 3 7 4 3 17 34 40 29 29 20 20 19 24 21 33 31 32 33
66 61 47 34 29 24 21 19 24 26 22 29 23 19 13 12 15 10 8 13 13 12 11 15 12 15 4 5 2 6 11 26 21 33 14 8 12 8 19 24 36 41 40 31 32
69 61 46 28 25 20 18 18 27 24 15 28 17 19 23 12 4 2 5 5 5 9 10 13 19 14 13 12 5 12 10 15 7 4 11 7 8 9 28 35 36 43 36 37 33
75 63 45 21 19 16 16 22 33 21 10 25 12 7 8 8 7 10 15 11 9 10 15 18 26 16 8 9 9 9 7 5 10 10 6 9 16 19 49 36 46 45 36 33 17
80 65 41 16 11 14 18 27 31 10 8 19 6 8 1 9 14 20 14 10 9 18 15 21 23 9 2 5 9 9 10 10 13 10 6 6 17 21 61 48 42 49 39 28 34
80 63 38 15 6 13 18 26 25 8 21 7 11 4 4 10 16 24 14 20 22 21 12 5 4 3 6 7 9 14 10 12 21 11 9 14 29 26 47 37 46 48 45 30 32
80 52 34 19 7 13 24 12 16 5 15 8 21 11 18 24 25 15 16 23 27 17 8 5 6 12 24 17 15 12 12 21 23 25 11 26 34 25 37 37 39 45 51 47 39
78 40 34 22 10 9 21 18 19 11 14 10 12 11 19 31 26 34 14 16 11 16 9 5 13 27 15 11 12 14 15 16 17 23 12 22 36 31 26 24 48 51 53 52 40
77 31 32 14 11 14 14 22 14 9 2 12 7 21 12 25 11 29 35 13 11 8 13 17 19 3 9 11 13 11 12 17 31 30 12 16 41 19 18 26 48 58 55 50 46
74 24 25 16 5 16 15 22 11 6 8 11 5 11 24 19 5 24 33 11 6 8 9 11 11 11 7 10 11 19 19 24 24 15 12 9 23 10 16 29 22 42 50 60 57
69 20 22 20 15 17 20 26 6 2 6 10 6 7 27 12 11 15 22 24 7 16 3 16 6 14 14 16 6 12 13 14 25 22 10 12 8 9 4 9 20 19 50 64 50
64 6 28 26 26 29 35 18 5 10 4 8 8 11 13 9 19 9 8 20 17 5 4 11 20 8 10 5 4 6 10 19 6 3 13 22 20 8 11 14 12 12 31 32 29
58 3 15 24 30 35 39 3 10 8 10 7 9 9 4 7 11 5 8 13 1 10 8 13 9 6 5 10 12 16 10 8 9 1 11 10 13 27 25 18 17 20 37 32 31
48 12 16 22 30 25 32 10 8 3 10 8 11 9 7 5 8 6 12 10 6 6 4 4 15 5 2 4 10 15 12 7 9 6 9 6 13 11 17 25 32 35 42 26 12
40 6 14 28 41 19 12 9 9 3 7 11 15 3 5 3 7 9 8 6 7 11 4 8 12 10 26 30 16 6 8 6 5 8 12 8 12 16 22 17 12 14 5 7 16
45 8 18 40 28 14 11 4 5 6 10 6 5 2 7 9 7 11 6 7 6 15 7 8 24 10 7 6 15 12 10 4 3 7 9 9 10 12 14 7 8 12 19 24 28
36 5 18 35 14 14 7 8 9 17 15 6 6 10 11 7 8 5 12 11 8 4 11 3 10 14 9 9 10 4 5 6 6 5 6 10 9 12 14 15 10 13 27 38 48
27 6 26 17 11 7 2 7 16 10 23 9 5 3 7 8 9 10 12 12 3 4 6 6 7 14 18 30 14 10 8 11 5 6 9 7 21 13 11 10 7 21 43 61 56
35 12 18 18 6 7 12 8 8 7 8 7 8 5 7 7 12 8 9 8 36 10 8 8 8 8 16 6 5 5 8 16 12 9 26 14 17 3 10 14 25 21 40 61 75
19 9 13 17 11 8 6 8 9 13 8 10 9 2 8 8 13 15 25 16 7 22 51 27 11 17 20 22 8 15 18 21 16 9 15 22 44 40 38 40 39 37 41 53 67
13 4 5 8 6 5 7 5 6 6 9 18 9 2 10 10 11 13 9 21 26 34 1 4 10 14 31 36 38 47 46 37 32 31 21 24 34 33 31 28 26 48 51 55 63
13 11 8 15 19 10 4 6 4 5 5 10 11 14 10 13 17 42 26 20 15 7 4 2 6 6 16 35 33 40 39 32 30 18 23 27 37 18 36 44 41 45 44 48 62
10 13 12 10 4 4 6 7 8 10 20 30 17 22 20 23 36 58 63 57 31 7 4 3 4 6 9 14 28 16 11 4 4 19 24 19 9 23 36 39 42 54 57 60 65
Wind_Direction_500mb
9 5 1 360 357 357 357 1 5 4 5 1 352 345 345 349 353 11 84 102 64 58 38 38 30 50 82 120 126 99 61 111 242 131 261 309 6 297 315 287 309 306 305 327 343
9 4 1 1 1 1 7 12 13 11 8 7 358 350 348 357 44 52 105 82 68 59 49 41 19 42 69 71 96 88 106 211 213 246 304 315 310 308 281 288 298 276 309 329 339
8 6 4 3 3 4 12 17 16 13 11 9 3 357 355 10 86 68 96 72 45 28 14 16 22 48 67 37 24 77 174 195 306 324 349 276 307 320 271 300 297 296 316 336 341
8 7 7 9 8 9 15 18 15 11 7 6 1 358 356 38 98 92 79 46 14 359 355 37 28 42 60 37 351 102 9 71 316 313 325 287 301 303 256 278 292 288 303 315 322
7 6 8 11 13 16 19 16 14 7 9 3 3 358 18 69 72 110 85 36 24 34 54 49 44 60 40 300 345 118 289 296 307 301 297 291 253 254 270 305 288 297 296 299 303
5 3 4 9 15 18 20 23 5 360 8 5 13 20 79 76 96 120 68 35 22 25 23 26 18 358 57 327 106 264 283 295 303 296 291 260 273 284 279 303 288 290 296 297 301
3 358 358 4 12 25 29 15 358 349 350 3 26 67 75 82 76 71 325 335 338 331 338 334 338 335 328 321 333 297 324 331 296 310 295 332 307 226 306 309 305 302 292 299 296
0 355 352 358 12 25 20 2 353 343 336 4 32 81 88 67 342 333 305 266 262 260 281 306 322 288 247 274 345 356 70 5 274 310 272 24 274 278 304 310 307 309 291 303 287
359 355 351 354 11 16 8 352 345 8 346 359 27 23 176 324 347 338 290 282 258 253 261 279 299 269 304 77 358 356 258 280 302 229 269 187 267 284 298 303 297 303 306 285 287
360 357 357 4 11 11 5 350 350 23 358 23 32 21 24 343 329 318 291 277 271 281 284 206 171 51 31 78 269 277 283 270 278 284 212 261 264 275 284 292 286 295 302 300 293
0 1 7 11 36 47 18 26 6 6 357 345 312 288 300 322 325 336 278 273 260 261 243 360 49 256 254 217 240 274 282 269 275 277 284 276 280 280 281 286 280 286 289 291 289
360 360 2 4 68 46 29 52 25 328 318 16 353 320 15 354 319 328 326 236 185 231 111 10 234 249 246 254 226 246 254 267 268 267 236 272 274 278 274 256 263 269 274 276 276
358 0 5 23 60 28 26 15 359 338 331 320 20 23 7 328 311 21 13 295 214 215 203 215 245 197 203 261 252 245 241 272 275 291 257 280 281 240 248 242 253 261 265 268 263
358 12 20 32 34 16 26 6 357 351 66 314 6 28 356 326 39 15 14 356 333 280 266 227 274 233 239 240 241 291 269 282 278 293 280 125 296 234 240 251 252 258 261 262 264
359 25 29 36 33 21 357 340 310 309 22 312 3 331 6 47 315 342 6 2 313 273 288 252 275 267 267 247 231 240 303 275 273 262 286 217 257 278 274 244 252 257 260 268 272
358 30 39 26 16 0 351 346 145 45 276 325 330 335 25 324 345 295 318 350 302 326 317 250 283 225 228 293 84 314 346 313 5 155 254 222 200 301 230 234 265 257 278 278 280
356 327 5 7 355 352 351 46 33 98 355 303 289 320 331 262 305 286 306 328 293 355 324 322 305 272 56 3 351 7 34 327 328 243 240 328 213 252 291 272 247 259 276 292 306
0 64 43 8 348 344 347 53 68 245 263 295 291 287 271 357 262 301 293 306 241 170 305 318 325 340 222 188 223 279 172 177 265 251 269 318 251 249 245 281 278 266 279 292 334
4 116 17 352 353 350 360 56 201 225 299 308 308 258 293 290 270 356 277 264 228 171 208 289 258 262 279 291 156 198 195 224 261 242 272 235 289 301 266 307 271 247 273 321 340
355 276 356 352 355 7 67 245 246 235 311 293 291 260 284 280 327 348 296 233 238 204 170 279 291 255 359 336 216 180 169 36 213 274 259 273 260 240 285 270 344 352 313 310 334
355 22 351 347 7 37 100 249 291 309 347 275 260 268 275 292 249 254 261 289 217 236 151 273 222 282 18 213 211 153 223 170 219 220 262 295 254 217 250 254 236 301 314 317 323
359 3 353 7 46 48 59 309 309 287 337 302 330 307 277 305 267 254 237 221 62 180 211 235 282 272 241 263 235 175 217 165 223 223 233 236 263 256 241 255 261 289 304 315 318
344 314 351 9 66 347 319 295 267 316 299 347 303 6 2 302 338 239 263 277 308 213 209 172 241 298 315 17 72 195 205 207 234 236 245 261 260 244 312 292 273 272 311 313 312
348 354 347 38 96 107 344 287 300 312 276 345 277 312 12 290 229 276 283 307 343 262 285 272 236 221 257 256 265 265 251 247 237 243 274 247 278 284 292 290 295 301 316 313 307
357 4 17 313 338 341 199 257 275 321 312 322 303 31 347 292 285 257 251 292 297 291 343 212 253 229 252 264 269 266 270 270 264 261 262 284 274 285 305 309 290 299 307 306 299
1 350 321 284 296 309 264 250 238 333 270 277 237 295 309 244 233 292 295 293 251 313 273 24 272 293 276 263 268 276 274 264 260 277 286 284 284 354 314 303 291 290 290 290 288
326 321 317 277 300 344 255 268 283 4 282 248 277 314 292 258 287 284 279 274 249 236 273 305 298 279 265 321 307 289 312 135 290 282 281 278 304 303 308 305 302 296 291 284 282
Wind_Speed_850mb
50 47 46 41 36 32 28 24 20 18 17 15 17 19 22 24 20 13 7 12 12 10 10 12 17 10 6 6 8 8 9 2 3 4 6 30 13 14 23 36 22 24 30 36 37
55 54 50 43 35 29 24 21 20 21 21 22 22 23 25 25 16 20 19 16 17 19 18 17 18 11 6 6 5 9 7 14 10 4 3 21 11 32 6 21 18 23 26 26 29
58 55 48 40 33 28 23 22 22 23 25 26 26 27 24 17 17 18 20 15 16 18 19 16 16 11 8 9 11 2 8 6 3 12 17 10 19 16 7 2 21 20 24 24 25
60 56 48 38 32 26 23 22 22 26 29 27 30 26 19 11 8 13 14 13 13 11 13 14 10 8 8 6 12 2 2 5 18 21 20 9 18 21 20 15 29 28 25 25 29
64 59 47 36 30 25 22 21 22 28 27 27 27 23 13 11 9 12 13 13 15 9 11 15 21 7 4 3 7 4 3 17 34 40 29 29 20 20 19 24 21 33 31 32 33
66 61 47 34 29 24 21 19 24 26 22 29 23 19 13 12 15 10 8 13 13 12 11 15 12 15 4 5 2 6 11 26 21 33 14 8 12 8 19 24 36 41 40 31 32
69 61 46 28 25 20 18 18 27 24 15 28 17 19 23 12 4 2 5 5 5 9 10 13 19 14 13 12 5 12 10 15 7 4 11 7 8 9 28 35 36 43 36 37 33
75 63 45 21 19 16 16 22 33 21 10 25 12 7 8 8 7 10 15 11 9 10 15 18 26 16 8 9 9 9 7 5 10 10 6 9 16 19 49 36 46 45 36 33 17
80 65 41 16 11 14 18 27 31 10 8 19 6 8 1 9 14 20 14 10 9 18 15 21 23 9 2 5 9 9 10 10 13 10 6 6 17 21 61 48 42 49 39 28 34
80 63 38 15 6 13 18 26 25 8 21 7 11 4 4 10 16 24 14 20 22 21 12 5 4 3 6 7 9 14 10 12 21 11 9 14 29 26 47 37 46 48 45 30 32
80 52 34 19 7 13 24 12 16 5 15 8 21 11 18 24 25 15 16 23 27 17 8 5 6 12 24 17 15 12 12 21 23 25 11 26 34 25 37 37 39 45 51 47 39
78 40 34 22 10 9 21 18 19 11 14 10 12 11 19 31 26 34 14 16 11 16 9 5 13 27 15 11 12 14 15 16 17 23 12 22 36 31 26 24 48 51 53 52 40
77 31 32 14 11 14 14 22 14 9 2 12 7 21 12 25 11 29 35 13 11 8 13 17 19 3 9 11 13 11 12 17 31 30 12 16 41 19 18 26 48 58 55 50 46
74 24 25 16 5 16 15 22 11 6 8 11 5 11 24 19 5 24 33 11 6 8 9 11 11 11 7 10 11 19 19 24 24 15 12 9 23 10 16 29 22 42 50 60 57
69 20 22 20 15 17 20 26 6 2 6 10 6 7 27 12 11 15 22 24 7 16 3 16 6 14 14 16 6 12 13 14 25 22 10 12 8 9 4 9 20 19 50 64 50
64 6 28 26 26 29 35 18 5 10 4 8 8 11 13 9 19 9 8 20 17 5 4 11 20 8 10 5 4 6 10 19 6 3 13 22 20 8 11 14 12 12 31 32 29
58 3 15 24 30 35 39 3 10 8 10 7 9 9 4 7 11 5 8 13 1 10 8 13 9 6 5 10 12 16 10 8 9 1 11 10 13 27 25 18 17 20 37 32 31
48 12 16 22 30 25 32 10 8 3 10 8 11 9 7 5 8 6 12 10 6 6 4 4 15 5 2 4 10 15 12 7 9 6 9 6 13 11 17 25 32 35 42 26 12
40 6 14 28 41 19 12 9 9 3 7 11 15 3 5 3 7 9 8 6 7 11 4 8 12 10 26 30 16 6 8 6 5 8 12 8 12 16 22 17 12 14 5 7 16
45 8 18 40 28 14 11 4 5 6 10 6 5 2 7 9 7 11 6 7 6 15 7 8 24 10 7 6 15 12 10 4 3 7 9 9 10 12 14 7 8 12 19 24 28
36 5 18 35 14 14 7 8 9 17 15 6 6 10 11 7 8 5 12 11 8 4 11 3 10 14 9 9 10 4 5 6 6 5 6 10 9 12 14 15 10 13 27 38 48
27 6 26 17 11 7 2 7 16 10 23 9 5 3 7 8 9 10 12 12 3 4 6 6 7 14 18 30 14 10 8 11 5 6 9 7 21 13 11 10 7 21 43 61 56
35 12 18 18 6 7 12 8 8 7 8 7 8 5 7 7 12 8 9 8 36 10 8 8 8 8 16 6 5 5 8 16 12 9 26 14 17 3 10 14 25 21 40 61 75
19 9 13 17 11 8 6 8 9 13 8 10 9 2 8 8 13 15 25 16 7 22 51 27 11 17 20 22 8 15 18 21 16 9 15 22 44 40 38 40 39 37 41 53 67
13 4 5 8 6 5 7 5 6 6 9 18 9 2 10 10 11 13 9 21 26 34 1 4 10 14 31 36 38 47 46 37 32 31 21 24 34 33 31 28 26 48 51 55 63
13 11 8 15 19 10 4 6 4 5 5 10 11 14 10 13 17 42 26 20 15 7 4 2 6 6 16 35 33 40 39 32 30 18 23 27 37 18 36 44 41 45 44 48 62
10 13 12 10 4 4 6 7 8 10 20 30 17 22 20 23 36 58 63 57 31 7 4 3 4 6 9 14 28 16 11 4 4 19 24 19 9 23 36 39 42 54 57 60 65
Wind_Direction_850mb
9 5 1 360 357 357 357 1 5 4 5 1 352 345 345 349 353 11 84 102 64 58 38 38 30 50 82 120 126 99 61 111 242 131 261 309 6 297 315 287 309 306 305 327 343
9 4 1 1 1 1 7 12 13 11 8 7 358 350 348 357 44 52 105 82 68 59 49 41 19 42 69 71 96 88 106 211 213 246 304 315 310 308 281 288 298 276 309 329 339
8 6 4 3 3 4 12 17 16 13 11 9 3 357 355 10 86 68 96 72 45 28 14 16 22 48 67 37 24 77 174 195 306 324 349 276 307 320 271 300 297 296 316 336 341
8 7 7 9 8 9 15 18 15 11 7 6 1 358 356 38 98 92 79 46 14 359 355 37 28 42 60 37 351 102 9 71 316 313 325 287 301 303 256 278 292 288 303 315 322
7 6 8 11 13 16 19 16 14 7 9 3 3 358 18 69 72 110 85 36 24 34 54 49 44 60 40 300 345 118 289 296 307 301 297 291 253 254 270 305 288 297 296 299 303
5 3 4 9 15 18 20 23 5 360 8 5 13 20 79 76 96 120 68 35 22 25 23 26 18 358 57 327 106 264 283 295 303 296 291 260 273 284 279 303 288 290 296 297 301
3 358 358 4 12 25 29 15 358 349 350 3 26 67 75 82 76 71 325 335 338 331 338 334 338 335 328 321 333 297 324 331 296 310 295 332 307 226 306 309 305 302 292 299 296
0 355 352 358 12 25 20 2 353 343 336 4 32 81 88 67 342 333 305 266 262 260 281 306 322 288 247 274 345 356 70 5 274 310 272 24 274 278 304 310 307 309 291 303 287
359 355 351 354 11 16 8 352 345 8 346 359 27 23 176 324 347 338 290 282 258 253 261 279 299 269 304 77 358 356 258 280 302 229 269 187 267 284 298 303 297 303 306 285 287
360 357 357 4 11 11 5 350 350 23 358 23 32 21 24 343 329 318 291 277 271 281 284 206 171 51 31 78 269 277 283 270 278 284 212 261 264 275 284 292 286 295 302 300 293
0 1 7 11 36 47 18 26 6 6 357 345 312 288 300 322 325 336 278 273 260 261 243 360 49 256 254 217 240 274 282 269 275 277 284 276 280 280 281 286 280 286 289 291 289
360 360 2 4 68 46 29 52 25 328 318 16 353 320 15 354 319 328 326 236 185 231 111 10 234 249 246 254 226 246 254 267 268 267 236 272 274 278 274 256 263 269 274 276 276
358 0 5 23 60 28 26 15 359 338 331 320 20 23 7 328 311 21 13 295 214 215 203 215 245 197 203 261 252 245 241 272 275 291 257 280 281 240 248 242 253 261 265 268 263
358 12 20 32 34 16 26 6 357 351 66 314 6 28 356 326 39 15 14 356 333 280 266 227 274 233 239 240 241 291 269 282 278 293 280 125 296 234 240 251 252 258 261 262 264
359 25 29 36 33 21 357 340 310 309 22 312 3 331 6 47 315 342 6 2 313 273 288 252 275 267 267 247 231 240 303 275 273 262 286 217 257 278 274 244 252 257 260 268 272
358 30 39 26 16 0 351 346 145 45 276 325 330 335 25 324 345 295 318 350 302 326 317 250 283 225 228 293 84 314 346 313 5 155 254 222 200 301 230 234 265 257 278 278 280
356 327 5 7 355 352 351 46 33 98 355 303 289 320 331 262 305 286 306 328 293 355 324 322 305 272 56 3 351 7 34 327 328 243 240 328 213 252 291 272 247 259 276 292 306
0 64 43 8 348 344 347 53 68 245 263 295 291 287 271 357 262 301 293 306 241 170 305 318 325 340 222 188 223 279 172 177 265 251 269 318 251 249 245 281 278 266 279 292 334
4 116 17 352 353 350 360 56 201 225 299 308 308 258 293 290 270 356 277 264 228 171 208 289 258 262 279 291 156 198 195 224 261 242 272 235 289 301 266 307 271 247 273 321 340
355 276 356 352 355 7 67 245 246 235 311 293 291 260 284 280 327 348 296 233 238 204 170 279 291 255 359 336 216 180 169 36 213 274 259 273 260 240 285 270 344 352 313 310 334
355 22 351 347 7 37 100 249 291 309 347 275 260 268 275 292 249 254 261 289 217 236 151 273 222 282 18 213 211 153 223 170 219 220 262 295 254 217 250 254 236 301 314 317 323
359 3 353 7 46 48 59 309 309 287 337 302 330 307 277 305 267 254 237 221 62 180 211 235 282 272 241 263 235 175 217 165 223 223 233 236 263 256 241 255 261 289 304 315 318
344 314 351 9 66 347 319 295 267 316 299 347 303 6 2 302 338 239 263 277 308 213 209 172 241 298 315 17 72 195 205 207 234 236 245 261 260 244 312 292 273 272 311 313 312
348 354 347 38 96 107 344 287 300 312 276 345 277 312 12 290 229 276 283 307 343 262 285 272 236 221 257 256 265 265 251 247 237 243 274 247 278 284 292 290 295 301 316 313 307
357 4 17 313 338 341 199 257 275 321 312 322 303 31 347 292 285 257 251 292 297 291 343 212 253 229 252 264 269 266 270 270 264 261 262 284 274 285 305 309 290 299 307 306 299
1 350 321 284 296 309 264 250 238 333 270 277 237 295 309 244 233 292 295 293 251 313 273 24 272 293 276 263 268 276 274 264 260 277 286 284 284 354 314 303 291 290 290 290 288
326 321 317 277 300 344 255 268 283 4 282 248 277 314 292 258 287 284 279 274 249 236 273 305 298 279 265 321 307 289 312 135 290 282 281 278 304 303 308 305 302 296 291 284 282